Location: Easthampton
(42.2676°N, 72.6690°W)
Time: 04:54:16
(UTC+00:00)

SEEDS - Visible Passes

Search period start: 23 March 2023 00:00
Search period end: 02 April 2023 00:00
Orbit: 573 x 589 km, 97.6° (Epoch: 21 March)

Date Brightness Start Highest point End Pass type
(mag) Time Alt. Az. Time Alt. Az. Time Alt. Az.
23 Mar ? 08:31:54 10° NNE 08:35:57 49° E 08:37:10 37° SSE visible
23 Mar ? 10:08:30 10° NNW 10:10:54 15° WNW 10:13:18 10° W visible
24 Mar ? 08:37:05 10° NNE 08:41:12 57° E 08:42:37 36° SSE visible
24 Mar ? 10:14:02 10° NW 10:16:03 13° WNW 10:18:04 10° W visible
25 Mar ? 08:42:15 10° NNE 08:46:24 66° E 08:48:02 35° S visible
26 Mar ? 08:47:25 10° NNE 08:51:36 76° ESE 08:53:27 32° S visible
27 Mar ? 08:52:34 10° NNE 08:56:46 87° ESE 08:58:50 29° SSW visible
28 Mar ? 08:57:43 10° N 09:01:55 82° WNW 09:04:12 26° SSW visible
29 Mar ? 09:02:52 10° N 09:07:02 71° WNW 09:09:33 23° SSW visible
30 Mar ? 07:35:11 10° ENE 07:36:24 11° E 07:37:38 10° ESE visible
30 Mar ? 09:08:00 10° N 09:12:08 62° WNW 09:14:52 20° SSW visible
31 Mar ? 07:39:40 10° ENE 07:41:33 13° E 07:43:26 10° ESE visible
31 Mar ? 09:13:08 10° N 09:17:13 54° WNW 09:20:10 18° SW visible
01 Apr ? 07:44:20 10° ENE 07:46:41 15° E 07:49:00 10° SE visible
01 Apr ? 09:18:15 10° N 09:22:16 47° WNW 09:25:26 15° SW visible
